Time,TemperatureF,DewpointF,PressureIn,WindDirection,WindDirectionDegrees,WindSpeedMPH,WindSpeedGustMPH,Humidity,HourlyPrecipIn,Conditions,Clouds,dailyrainin,SoftwareType,DateUTC
2013-07-13 00:03:00,82.2,70.6,29.82,ESE,102,2.0,13.0,68,0.00,,,0.00,VWS V14.00,2013-07-13 05:03:00,
2013-07-13 00:08:00,82.2,70.6,29.82,SE,125,6.0,14.0,68,0.00,,,0.00,VWS V14.00,2013-07-13 05:08:00,
2013-07-13 00:13:00,82.1,70.5,29.82,SE,134,4.0,14.0,68,0.00,,,0.00,VWS V14.00,2013-07-13 05:13:00,
2013-07-13 00:18:00,82.0,70.4,29.82,SE,128,0.0,16.0,68,0.00,,,0.00,VWS V14.00,2013-07-13 05:18:00,
2013-07-13 00:23:00,81.9,70.3,29.82,SE,142,0.0,16.0,68,0.00,,,0.00,VWS V14.00,2013-07-13 05:23:00,
2013-07-13 00:28:00,81.8,70.2,29.81,SSE,148,0.0,17.0,68,0.00,,,0.00,VWS V14.00,2013-07-13 05:28:00,
2013-07-13 00:33:00,81.8,70.2,29.82,SSE,168,7.0,17.0,68,0.00,,,0.00,VWS V14.00,2013-07-13 05:33:00,
2013-07-13 00:38:00,81.7,70.1,29.82,ESE,111,1.0,13.0,68,0.00,,,0.00,VWS V14.00,2013-07-13 05:38:00,
2013-07-13 00:43:00,81.6,70.4,29.82,SSE,153,6.0,13.0,69,0.00,,,0.00,VWS V14.00,2013-07-13 05:43:00,
2013-07-13 00:48:00,81.5,70.4,29.82,SE,140,4.0,13.0,69,0.00,,,0.00,VWS V14.00,2013-07-13 05:48:00,
2013-07-13 00:53:00,81.4,70.3,29.82,SSW,192,1.0,13.0,69,0.00,,,0.00,VWS V14.00,2013-07-13 05:53:00,
2013-07-13 00:58:00,81.4,70.3,29.83,ESE,113,0.0,13.0,69,0.00,,,0.00,VWS V14.00,2013-07-13 05:58:00,
2013-07-13 01:03:00,81.3,70.2,29.83,ESE,113,0.0,13.0,69,0.00,,,0.00,VWS V14.00,2013-07-13 06:03:00,
2013-07-13 01:08:00,81.3,70.2,29.83,SE,142,7.0,7.0,69,0.00,,,0.00,VWS V14.00,2013-07-13 06:08:00,
2013-07-13 01:13:00,81.3,70.2,29.84,South,182,0.0,11.0,69,0.00,,,0.00,VWS V14.00,2013-07-13 06:13:00,
2013-07-13 01:18:00,81.2,70.1,29.84,SE,143,6.0,14.0,69,0.00,,,0.00,VWS V14.00,2013-07-13 06:18:00,
2013-07-13 01:22:00,81.2,70.1,29.83,SSE,150,10.0,14.0,69,0.00,,,0.00,VWS V14.00,2013-07-13 06:22:00,
2013-07-13 01:27:00,81.2,70.1,29.84,SE,132,7.0,15.0,69,0.00,,,0.00,VWS V14.00,2013-07-13 06:27:00,
2013-07-13 01:32:00,81.2,70.1,29.84,ESE,109,0.0,15.0,69,0.00,,,0.00,VWS V14.00,2013-07-13 06:32:00,
2013-07-13 01:37:00,81.2,70.1,29.84,ESE,122,0.0,9.0,69,0.00,,,0.00,VWS V14.00,2013-07-13 06:37:00,
2013-07-13 01:42:00,81.1,70.0,29.84,SSE,155,10.0,13.0,69,0.00,,,0.00,VWS V14.00,2013-07-13 06:42:00,
2013-07-13 01:47:00,81.1,70.0,29.83,SSE,150,0.0,13.0,69,0.00,,,0.00,VWS V14.00,2013-07-13 06:47:00,
2013-07-13 01:52:00,81.0,69.9,29.84,ESE,115,9.0,14.0,69,0.00,,,0.00,VWS V14.00,2013-07-13 06:52:00,
2013-07-13 01:57:00,81.0,70.3,29.84,ESE,102,0.0,14.0,70,0.00,,,0.00,VWS V14.00,2013-07-13 06:57:00,
2013-07-13 02:02:00,80.9,70.2,29.83,ESE,111,3.0,14.0,70,0.00,,,0.00,VWS V14.00,2013-07-13 07:02:00,
2013-07-13 02:07:00,80.9,70.2,29.84,SE,132,0.0,7.0,70,0.00,,,0.00,VWS V14.00,2013-07-13 07:07:00,
2013-07-13 02:12:00,80.8,70.1,29.84,East,99,10.0,12.0,70,0.00,,,0.00,VWS V14.00,2013-07-13 07:12:00,
2013-07-13 02:17:00,80.8,70.1,29.84,SE,132,6.0,12.0,70,0.00,,,0.00,VWS V14.00,2013-07-13 07:17:00,
2013-07-13 02:22:00,80.7,70.0,29.83,ESE,117,6.0,12.0,70,0.00,,,0.00,VWS V14.00,2013-07-13 07:22:00,
2013-07-13 02:27:00,80.6,69.9,29.84,SE,143,0.0,15.0,70,0.00,,,0.00,VWS V14.00,2013-07-13 07:27:00,
2013-07-13 02:32:00,80.5,69.8,29.83,SSE,159,3.0,15.0,70,0.00,,,0.00,VWS V14.00,2013-07-13 07:32:00,
2013-07-13 02:37:00,80.4,70.1,29.84,ESE,120,5.0,11.0,71,0.00,,,0.00,VWS V14.00,2013-07-13 07:37:00,
2013-07-13 02:42:00,80.3,70.1,29.84,ESE,122,6.0,11.0,71,0.00,,,0.00,VWS V14.00,2013-07-13 07:42:00,
2013-07-13 02:47:00,80.3,70.1,29.84,ESE,121,0.0,11.0,71,0.00,,,0.00,VWS V14.00,2013-07-13 07:47:00,
2013-07-13 02:52:00,80.2,69.9,29.84,SE,136,5.0,11.0,71,0.00,,,0.00,VWS V14.00,2013-07-13 07:52:00,
2013-07-13 02:57:00,80.1,69.9,29.84,SE,136,0.0,11.0,71,0.00,,,0.00,VWS V14.00,2013-07-13 07:57:00,
2013-07-13 03:02:00,80.1,69.9,29.84,SE,124,4.0,14.0,71,0.00,,,0.00,VWS V14.00,2013-07-13 08:02:00,
2013-07-13 03:07:00,80.0,69.8,29.83,SE,128,7.0,12.0,71,0.00,,,0.00,VWS V14.00,2013-07-13 08:07:00,
2013-07-13 03:12:00,80.0,69.8,29.83,SE,131,3.0,12.0,71,0.00,,,0.00,VWS V14.00,2013-07-13 08:12:00,
2013-07-13 03:17:00,79.9,69.7,29.83,ESE,121,4.0,12.0,71,0.00,,,0.00,VWS V14.00,2013-07-13 08:17:00,
2013-07-13 03:22:00,79.8,70.0,29.83,ESE,117,6.0,13.0,72,0.00,,,0.00,VWS V14.00,2013-07-13 08:22:00,
2013-07-13 03:27:00,79.7,69.9,29.83,ESE,111,6.0,15.0,72,0.00,,,0.00,VWS V14.00,2013-07-13 08:27:00,
2013-07-13 03:32:00,79.6,69.8,29.83,East,97,0.0,15.0,72,0.00,,,0.00,VWS V14.00,2013-07-13 08:32:00,
2013-07-13 03:37:00,79.5,69.7,29.83,SE,130,4.0,7.0,72,0.00,,,0.00,VWS V14.00,2013-07-13 08:37:00,
2013-07-13 03:42:00,79.4,69.6,29.83,ESE,118,0.0,7.0,72,0.00,,,0.00,VWS V14.00,2013-07-13 08:42:00,
2013-07-13 03:47:00,79.3,69.5,29.83,ESE,121,2.0,10.0,72,0.00,,,0.00,VWS V14.00,2013-07-13 08:47:00,
2013-07-13 03:52:00,79.2,69.8,29.83,ESE,116,4.0,10.0,73,0.00,,,0.00,VWS V14.00,2013-07-13 08:52:00,
2013-07-13 03:57:00,79.1,69.7,29.83,East,96,4.0,10.0,73,0.00,,,0.00,VWS V14.00,2013-07-13 08:57:00,
2013-07-13 04:02:00,78.9,69.5,29.83,East,97,0.0,10.0,73,0.00,,,0.00,VWS V14.00,2013-07-13 09:02:00,
2013-07-13 04:07:00,78.9,69.5,29.83,ESE,117,0.0,9.0,73,0.00,,,0.00,VWS V14.00,2013-07-13 09:07:00,
2013-07-13 04:12:00,78.7,69.3,29.83,SE,125,5.0,9.0,73,0.00,,,0.00,VWS V14.00,2013-07-13 09:12:00,
2013-07-13 04:17:00,78.7,69.3,29.83,ESE,117,4.0,11.0,73,0.00,,,0.00,VWS V14.00,2013-07-13 09:17:00,
2013-07-13 04:22:00,78.7,69.3,29.83,ESE,123,0.0,11.0,73,0.00,,,0.00,VWS V14.00,2013-07-13 09:22:00,
2013-07-13 04:27:00,78.7,69.3,29.83,East,101,0.0,11.0,73,0.00,,,0.00,VWS V14.00,2013-07-13 09:27:00,
2013-07-13 04:32:00,78.6,69.6,29.83,ESE,115,2.0,11.0,74,0.00,,,0.00,VWS V14.00,2013-07-13 09:32:00,
2013-07-13 04:37:00,78.5,69.5,29.83,East,90,0.0,9.0,74,0.00,,,0.00,VWS V14.00,2013-07-13 09:37:00,
2013-07-13 04:42:00,78.4,69.4,29.83,ESE,112,2.0,9.0,74,0.00,,,0.00,VWS V14.00,2013-07-13 09:42:00,
2013-07-13 04:47:00,78.3,69.3,29.83,East,101,5.0,9.0,74,0.00,,,0.00,VWS V14.00,2013-07-13 09:47:00,
2013-07-13 04:52:00,78.2,69.2,29.83,ESE,103,4.0,9.0,74,0.00,,,0.00,VWS V14.00,2013-07-13 09:52:00,
2013-07-13 04:57:00,78.1,69.1,29.83,East,99,0.0,9.0,74,0.00,,,0.00,VWS V14.00,2013-07-13 09:57:00,
2013-07-13 05:02:00,78.1,69.1,29.83,SE,128,7.0,11.0,74,0.00,,,0.00,VWS V14.00,2013-07-13 10:02:00,
2013-07-13 05:07:00,78.1,69.1,29.83,East,96,5.0,9.0,74,0.00,,,0.00,VWS V14.00,2013-07-13 10:07:00,
2013-07-13 05:12:00,78.0,69.1,29.83,ESE,113,5.0,10.0,74,0.00,,,0.00,VWS V14.00,2013-07-13 10:12:00,
2013-07-13 05:17:00,77.9,68.9,29.83,ESE,123,1.0,11.0,74,0.00,,,0.00,VWS V14.00,2013-07-13 10:17:00,
2013-07-13 05:22:00,77.8,68.9,29.83,SE,144,0.0,11.0,74,0.00,,,0.00,VWS V14.00,2013-07-13 10:22:00,
2013-07-13 05:27:00,77.7,69.2,29.82,East,99,0.0,11.0,75,0.00,,,0.00,VWS V14.00,2013-07-13 10:27:00,
2013-07-13 05:32:00,77.6,69.1,29.83,ESE,109,0.0,11.0,75,0.00,,,0.00,VWS V14.00,2013-07-13 10:32:00,
2013-07-13 05:37:00,77.5,69.0,29.83,ESE,116,0.0,10.0,75,0.00,,,0.00,VWS V14.00,2013-07-13 10:37:00,
2013-07-13 05:42:00,77.3,68.8,29.83,SSE,157,0.0,10.0,75,0.00,,,0.00,VWS V14.00,2013-07-13 10:42:00,
2013-07-13 05:47:00,77.2,68.7,29.83,SE,129,3.0,10.0,75,0.00,,,0.00,VWS V14.00,2013-07-13 10:47:00,
2013-07-13 05:52:00,77.0,68.9,29.83,ESE,115,0.0,10.0,76,0.00,,,0.00,VWS V14.00,2013-07-13 10:52:00,
2013-07-13 05:57:00,77.0,68.9,29.83,SE,128,3.0,13.0,76,0.00,,,0.00,VWS V14.00,2013-07-13 10:57:00,
2013-07-13 06:02:00,76.9,68.8,29.83,ESE,119,0.0,13.0,76,0.00,,,0.00,VWS V14.00,2013-07-13 11:02:00,
2013-07-13 06:07:00,76.8,68.7,29.83,South,182,6.0,10.0,76,0.00,,,0.00,VWS V14.00,2013-07-13 11:07:00,
2013-07-13 06:12:00,76.7,68.6,29.83,SE,144,8.0,10.0,76,0.00,,,0.00,VWS V14.00,2013-07-13 11:12:00,
2013-07-13 06:17:00,76.7,68.6,29.83,ESE,105,2.0,11.0,76,0.00,,,0.00,VWS V14.00,2013-07-13 11:17:00,
2013-07-13 06:22:00,76.6,68.5,29.83,SE,134,5.0,11.0,76,0.00,,,0.00,VWS V14.00,2013-07-13 11:22:00,
2013-07-13 06:27:00,76.6,68.5,29.83,SE,134,7.0,12.0,76,0.00,,,0.00,VWS V14.00,2013-07-13 11:27:00,
2013-07-13 06:32:00,76.5,68.4,29.83,East,98,4.0,12.0,76,0.00,,,0.00,VWS V14.00,2013-07-13 11:32:00,
2013-07-13 06:37:00,76.5,68.4,29.83,SSE,150,6.0,9.0,76,0.00,,,0.00,VWS V14.00,2013-07-13 11:37:00,
2013-07-13 06:42:00,76.5,68.4,29.84,SE,126,0.0,11.0,76,0.00,,,0.00,VWS V14.00,2013-07-13 11:42:00,
2013-07-13 06:47:00,76.5,68.4,29.83,ESE,123,0.0,11.0,76,0.00,,,0.00,VWS V14.00,2013-07-13 11:47:00,
2013-07-13 06:52:00,76.5,68.4,29.83,ESE,110,12.0,14.0,76,0.00,,,0.00,VWS V14.00,2013-07-13 11:52:00,
2013-07-13 06:57:00,76.5,68.4,29.84,SE,132,8.0,14.0,76,0.00,,,0.00,VWS V14.00,2013-07-13 11:57:00,
2013-07-13 07:02:00,76.5,68.4,29.84,ESE,110,9.0,14.0,76,0.00,,,0.00,VWS V14.00,2013-07-13 12:02:00,
2013-07-13 07:03:00,76.5,68.4,29.84,ESE,115,6.0,14.0,76,0.00,,,0.00,VWS V14.00,2013-07-13 12:03:00,
2013-07-13 07:07:00,76.5,68.4,29.84,ESE,115,6.0,7.0,76,0.00,,,0.00,VWS V14.00,2013-07-13 12:07:00,
2013-07-13 07:12:00,76.5,68.4,29.84,ESE,112,0.0,12.0,76,0.00,,,0.00,VWS V14.00,2013-07-13 12:12:00,
2013-07-13 07:17:00,76.5,68.4,29.84,East,101,0.0,12.0,76,0.00,,,0.00,VWS V14.00,2013-07-13 12:17:00,
2013-07-13 07:22:00,76.5,68.4,29.83,SE,140,11.0,12.0,76,0.00,,,0.00,VWS V14.00,2013-07-13 12:22:00,
2013-07-13 07:27:00,76.5,68.4,29.84,ESE,117,0.0,13.0,76,0.00,,,0.00,VWS V14.00,2013-07-13 12:27:00,
2013-07-13 07:32:00,76.6,68.5,29.83,East,100,5.0,15.0,76,0.00,,,0.00,VWS V14.00,2013-07-13 12:32:00,
2013-07-13 07:37:00,76.7,68.2,29.83,ESE,122,0.0,11.0,75,0.00,,,0.00,VWS V14.00,2013-07-13 12:37:00,
2013-07-13 07:42:00,76.8,68.3,29.83,SE,135,5.0,11.0,75,0.00,,,0.00,VWS V14.00,2013-07-13 12:42:00,
2013-07-13 07:47:00,76.9,68.4,29.83,SSE,168,4.0,14.0,75,0.00,,,0.00,VWS V14.00,2013-07-13 12:47:00,
2013-07-13 07:52:00,77.0,68.5,29.83,ESE,118,4.0,18.0,75,0.00,,,0.00,VWS V14.00,2013-07-13 12:52:00,
2013-07-13 07:57:00,77.0,68.5,29.83,ESE,109,0.0,18.0,75,0.00,,,0.00,VWS V14.00,2013-07-13 12:57:00,
2013-07-13 08:02:00,77.0,68.5,29.83,ENE,71,8.0,18.0,75,0.00,,,0.00,VWS V14.00,2013-07-13 13:02:00,
2013-07-13 08:07:00,77.1,68.6,29.83,ESE,107,4.0,15.0,75,0.00,,,0.00,VWS V14.00,2013-07-13 13:07:00,
2013-07-13 08:12:00,77.2,68.3,29.83,SE,143,5.0,16.0,74,0.00,,,0.00,VWS V14.00,2013-07-13 13:12:00,
2013-07-13 08:17:00,77.3,68.4,29.84,East,90,7.0,19.0,74,0.00,,,0.00,VWS V14.00,2013-07-13 13:17:00,
2013-07-13 08:22:00,77.4,68.5,29.84,ESE,105,1.0,19.0,74,0.00,,,0.00,VWS V14.00,2013-07-13 13:22:00,
2013-07-13 08:27:00,77.5,68.6,29.85,SE,131,4.0,19.0,74,0.00,,,0.00,VWS V14.00,2013-07-13 13:27:00,
2013-07-13 08:32:00,77.6,68.7,29.85,SE,128,6.0,19.0,74,0.00,,,0.00,VWS V14.00,2013-07-13 13:32:00,
2013-07-13 08:37:00,77.9,68.6,29.85,SE,136,2.0,15.0,73,0.00,,,0.00,VWS V14.00,2013-07-13 13:37:00,
2013-07-13 08:42:00,78.3,68.9,29.85,SE,130,5.0,15.0,73,0.00,,,0.00,VWS V14.00,2013-07-13 13:42:00,
2013-07-13 08:47:00,78.7,68.9,29.84,SE,140,8.0,15.0,72,0.00,,,0.00,VWS V14.00,2013-07-13 13:47:00,
2013-07-13 08:52:00,79.3,69.5,29.84,SE,140,15.0,16.0,72,0.00,,,0.00,VWS V14.00,2013-07-13 13:52:00,
2013-07-13 08:57:00,79.7,69.5,29.84,ESE,111,7.0,16.0,71,0.00,,,0.00,VWS V14.00,2013-07-13 13:57:00,
2013-07-13 09:02:00,79.9,69.7,29.84,SSE,159,4.0,16.0,71,0.00,,,0.00,VWS V14.00,2013-07-13 14:02:00,
2013-07-13 09:07:00,80.1,69.4,29.84,SE,133,15.0,15.0,70,0.00,,,0.00,VWS V14.00,2013-07-13 14:07:00,
2013-07-13 09:12:00,80.2,69.5,29.84,SSE,154,6.0,15.0,70,0.00,,,0.00,VWS V14.00,2013-07-13 14:12:00,
2013-07-13 09:17:00,80.3,69.6,29.84,SE,142,7.0,15.0,70,0.00,,,0.00,VWS V14.00,2013-07-13 14:17:00,
2013-07-13 09:22:00,80.4,69.7,29.84,SE,135,10.0,15.0,70,0.00,,,0.00,VWS V14.00,2013-07-13 14:22:00,
2013-07-13 09:27:00,80.6,69.9,29.84,East,101,0.0,15.0,70,0.00,,,0.00,VWS V14.00,2013-07-13 14:27:00,
2013-07-13 09:32:00,80.8,70.1,29.84,SE,136,4.0,15.0,70,0.00,,,0.00,VWS V14.00,2013-07-13 14:32:00,
2013-07-13 09:37:00,81.3,70.2,29.84,SSE,152,5.0,17.0,69,0.00,,,0.00,VWS V14.00,2013-07-13 14:37:00,
2013-07-13 09:42:00,81.7,70.1,29.84,SSW,203,3.0,17.0,68,0.00,,,0.00,VWS V14.00,2013-07-13 14:42:00,
2013-07-13 09:47:00,81.9,70.3,29.84,SW,219,6.0,17.0,68,0.00,,,0.00,VWS V14.00,2013-07-13 14:47:00,
2013-07-13 09:52:00,82.0,70.4,29.84,SE,135,9.0,17.0,68,0.00,,,0.00,VWS V14.00,2013-07-13 14:52:00,
2013-07-13 09:57:00,82.3,70.7,29.84,South,171,10.0,17.0,68,0.00,,,0.00,VWS V14.00,2013-07-13 14:57:00,
2013-07-13 10:02:00,82.8,70.7,29.84,SSE,157,8.0,17.0,67,0.00,,,0.00,VWS V14.00,2013-07-13 15:02:00,
2013-07-13 10:07:00,83.6,71.5,29.84,SSE,152,7.0,18.0,67,0.00,,,0.00,VWS V14.00,2013-07-13 15:07:00,
2013-07-13 10:12:00,84.3,71.7,29.84,SE,136,5.0,18.0,66,0.00,,,0.00,VWS V14.00,2013-07-13 15:12:00,
2013-07-13 10:13:00,84.5,71.9,29.84,SSE,150,6.0,18.0,66,0.00,,,0.00,VWS V14.00,2013-07-13 15:13:00,
2013-07-13 10:18:00,85.3,71.8,29.84,SE,129,7.0,18.0,64,0.00,,,0.00,VWS V14.00,2013-07-13 15:18:00,
2013-07-13 10:23:00,85.5,71.5,29.84,SSE,160,7.0,19.0,63,0.00,,,0.00,VWS V14.00,2013-07-13 15:23:00,
2013-07-13 10:28:00,85.4,71.8,29.84,SE,126,7.0,19.0,64,0.00,,,0.00,VWS V14.00,2013-07-13 15:28:00,
2013-07-13 10:33:00,85.0,71.5,29.84,SSE,165,12.0,19.0,64,0.00,,,0.00,VWS V14.00,2013-07-13 15:33:00,
2013-07-13 10:38:00,84.9,71.8,29.84,SE,139,3.0,11.0,65,0.00,,,0.00,VWS V14.00,2013-07-13 15:38:00,
2013-07-13 10:43:00,84.9,71.8,29.84,SE,141,5.0,11.0,65,0.00,,,0.00,VWS V14.00,2013-07-13 15:43:00,
2013-07-13 10:48:00,84.8,72.2,29.84,SE,140,3.0,13.0,66,0.00,,,0.00,VWS V14.00,2013-07-13 15:48:00,
2013-07-13 10:53:00,84.8,72.2,29.84,ESE,121,7.0,13.0,66,0.00,,,0.00,VWS V14.00,2013-07-13 15:53:00,
2013-07-13 10:58:00,84.8,71.7,29.84,SSE,164,3.0,13.0,65,0.00,,,0.00,VWS V14.00,2013-07-13 15:58:00,
2013-07-13 11:03:00,85.1,72.5,29.83,ESE,112,4.0,13.0,66,0.00,,,0.00,VWS V14.00,2013-07-13 16:03:00,
2013-07-13 11:08:00,85.7,73.0,29.84,SE,129,5.0,10.0,66,0.00,,,0.00,VWS V14.00,2013-07-13 16:08:00,
2013-07-13 11:13:00,86.3,73.2,29.83,SE,136,4.0,15.0,65,0.00,,,0.00,VWS V14.00,2013-07-13 16:13:00,
2013-07-13 11:18:00,87.1,73.0,29.84,SE,146,4.0,16.0,63,0.00,,,0.00,VWS V14.00,2013-07-13 16:18:00,
2013-07-13 11:23:00,87.3,72.7,29.84,SSE,153,2.0,20.0,62,0.00,,,0.00,VWS V14.00,2013-07-13 16:23:00,
2013-07-13 11:28:00,87.8,73.2,29.83,SSE,162,7.0,20.0,62,0.00,,,0.00,VWS V14.00,2013-07-13 16:28:00,
2013-07-13 11:33:00,88.3,73.6,29.83,SE,125,4.0,20.0,62,0.00,,,0.00,VWS V14.00,2013-07-13 16:33:00,
2013-07-13 11:38:00,88.8,73.6,29.83,SSE,163,4.0,14.0,61,0.00,,,0.00,VWS V14.00,2013-07-13 16:38:00,
2013-07-13 11:43:00,89.1,73.4,29.83,SE,130,7.0,14.0,60,0.00,,,0.00,VWS V14.00,2013-07-13 16:43:00,
2013-07-13 11:48:00,89.1,73.9,29.83,SE,144,9.0,14.0,61,0.00,,,0.00,VWS V14.00,2013-07-13 16:48:00,
2013-07-13 11:53:00,89.2,73.5,29.83,SSE,149,6.0,19.0,60,0.00,,,0.00,VWS V14.00,2013-07-13 16:53:00,
2013-07-13 11:58:00,89.6,73.9,29.82,ESE,121,6.0,19.0,60,0.00,,,0.00,VWS V14.00,2013-07-13 16:58:00,
2013-07-13 12:03:00,89.9,73.7,29.82,SSW,200,10.0,19.0,59,0.00,,,0.00,VWS V14.00,2013-07-13 17:03:00,
2013-07-13 12:08:00,90.2,73.9,29.83,SE,128,14.0,14.0,59,0.00,,,0.00,VWS V14.00,2013-07-13 17:08:00,
2013-07-13 12:13:00,90.3,73.5,29.83,SSE,150,7.0,19.0,58,0.00,,,0.00,VWS V14.00,2013-07-13 17:13:00,
2013-07-13 12:18:00,90.4,73.1,29.83,South,175,9.0,19.0,57,0.00,,,0.00,VWS V14.00,2013-07-13 17:18:00,
2013-07-13 12:23:00,90.4,73.1,29.82,SE,137,7.0,19.0,57,0.00,,,0.00,VWS V14.00,2013-07-13 17:23:00,
2013-07-13 12:28:00,90.4,73.1,29.83,SE,126,9.0,19.0,57,0.00,,,0.00,VWS V14.00,2013-07-13 17:28:00,
2013-07-13 12:33:00,90.6,73.3,29.83,SE,133,8.0,19.0,57,0.00,,,0.00,VWS V14.00,2013-07-13 17:33:00,
2013-07-13 12:38:00,90.9,73.6,29.83,SE,133,5.0,15.0,57,0.00,,,0.00,VWS V14.00,2013-07-13 17:38:00,
2013-07-13 12:43:00,91.0,73.7,29.82,SE,133,12.0,17.0,57,0.00,,,0.00,VWS V14.00,2013-07-13 17:43:00,
2013-07-13 12:48:00,91.1,73.8,29.82,SSE,165,7.0,17.0,57,0.00,,,0.00,VWS V14.00,2013-07-13 17:48:00,
2013-07-13 12:53:00,91.1,73.8,29.82,SSE,149,13.0,17.0,57,0.00,,,0.00,VWS V14.00,2013-07-13 17:53:00,
2013-07-13 12:58:00,90.8,73.5,29.82,ESE,105,6.0,17.0,57,0.00,,,0.00,VWS V14.00,2013-07-13 17:58:00,
2013-07-13 13:03:00,90.8,74.0,29.82,South,175,0.0,17.0,58,0.00,,,0.00,VWS V14.00,2013-07-13 18:03:00,
2013-07-13 13:08:00,91.5,74.7,29.82,South,191,5.0,13.0,58,0.00,,,0.00,VWS V14.00,2013-07-13 18:08:00,
2013-07-13 13:13:00,91.6,73.2,29.82,SSE,151,7.0,14.0,55,0.00,,,0.00,VWS V14.00,2013-07-13 18:13:00,
2013-07-13 13:18:00,91.4,73.5,29.82,SSE,153,9.0,18.0,56,0.00,,,0.00,VWS V14.00,2013-07-13 18:18:00,
2013-07-13 13:23:00,91.1,73.8,29.82,SSE,153,6.0,19.0,57,0.00,,,0.00,VWS V14.00,2013-07-13 18:23:00,
2013-07-13 13:28:00,91.2,73.3,29.82,SSE,164,0.0,19.0,56,0.00,,,0.00,VWS V14.00,2013-07-13 18:28:00,
2013-07-13 13:33:00,91.5,74.1,29.82,SSE,163,6.0,19.0,57,0.00,,,0.00,VWS V14.00,2013-07-13 18:33:00,
2013-07-13 13:38:00,91.4,74.0,29.82,SSE,165,0.0,15.0,57,0.00,,,0.00,VWS V14.00,2013-07-13 18:38:00,
2013-07-13 13:43:00,91.4,73.5,29.82,SSE,156,5.0,17.0,56,0.00,,,0.00,VWS V14.00,2013-07-13 18:43:00,
2013-07-13 13:48:00,91.8,73.9,29.81,SE,133,9.0,17.0,56,0.00,,,0.00,VWS V14.00,2013-07-13 18:48:00,
2013-07-13 13:53:00,91.8,73.3,29.81,South,171,3.0,17.0,55,0.00,,,0.00,VWS V14.00,2013-07-13 18:53:00,
2013-07-13 13:58:00,91.8,73.9,29.81,SE,139,10.0,17.0,56,0.00,,,0.00,VWS V14.00,2013-07-13 18:58:00,
2013-07-13 14:03:00,91.8,73.3,29.81,SSE,149,9.0,17.0,55,0.00,,,0.00,VWS V14.00,2013-07-13 19:03:00,
2013-07-13 14:08:00,92.2,74.2,29.81,South,188,9.0,10.0,56,0.00,,,0.00,VWS V14.00,2013-07-13 19:08:00,
2013-07-13 14:12:00,92.7,74.2,29.81,SE,133,6.0,12.0,55,0.00,,,0.00,VWS V14.00,2013-07-13 19:12:00,
2013-07-13 14:17:00,93.5,74.4,29.81,SSE,153,1.0,12.0,54,0.00,,,0.00,VWS V14.00,2013-07-13 19:17:00,
2013-07-13 14:22:00,93.7,74.6,29.81,SE,139,10.0,14.0,54,0.00,,,0.00,VWS V14.00,2013-07-13 19:22:00,
2013-07-13 14:27:00,93.6,75.0,29.81,SE,144,10.0,14.0,55,0.00,,,0.00,VWS V14.00,2013-07-13 19:27:00,
2013-07-13 14:32:00,93.8,75.2,29.81,ESE,111,9.0,16.0,55,0.00,,,0.00,VWS V14.00,2013-07-13 19:32:00,
2013-07-13 14:37:00,93.7,75.1,29.80,ESE,105,9.0,17.0,55,0.00,,,0.00,VWS V14.00,2013-07-13 19:37:00,
2013-07-13 14:42:00,93.7,74.0,29.80,South,175,9.0,18.0,53,0.00,,,0.00,VWS V14.00,2013-07-13 19:42:00,
2013-07-13 14:47:00,93.7,75.1,29.80,SSE,151,5.0,18.0,55,0.00,,,0.00,VWS V14.00,2013-07-13 19:47:00,
2013-07-13 14:52:00,94.0,74.3,29.80,ESE,119,6.0,18.0,53,0.00,,,0.00,VWS V14.00,2013-07-13 19:52:00,
2013-07-13 14:57:00,94.0,74.3,29.80,South,171,3.0,19.0,53,0.00,,,0.00,VWS V14.00,2013-07-13 19:57:00,
2013-07-13 15:02:00,94.0,74.3,29.80,SSE,148,10.0,19.0,53,0.00,,,0.00,VWS V14.00,2013-07-13 20:02:00,
2013-07-13 15:07:00,94.2,73.9,29.80,SE,140,13.0,14.0,52,0.00,,,0.00,VWS V14.00,2013-07-13 20:07:00,
2013-07-13 15:12:00,94.6,74.8,29.80,SE,132,14.0,14.0,53,0.00,,,0.00,VWS V14.00,2013-07-13 20:12:00,
2013-07-13 15:17:00,94.7,73.8,29.80,SE,134,7.0,14.0,51,0.00,,,0.00,VWS V14.00,2013-07-13 20:17:00,
2013-07-13 15:22:00,94.6,73.1,29.79,SSE,150,6.0,18.0,50,0.00,,,0.00,VWS V14.00,2013-07-13 20:22:00,
2013-07-13 15:27:00,94.6,72.5,29.79,South,178,4.0,18.0,49,0.00,,,0.00,VWS V14.00,2013-07-13 20:27:00,
2013-07-13 15:32:00,94.5,73.0,29.79,SE,131,7.0,18.0,50,0.00,,,0.00,VWS V14.00,2013-07-13 20:32:00,
2013-07-13 15:37:00,94.4,72.9,29.79,ESE,113,4.0,17.0,50,0.00,,,0.00,VWS V14.00,2013-07-13 20:37:00,
2013-07-13 15:42:00,94.4,73.5,29.79,ESE,107,2.0,18.0,51,0.00,,,0.00,VWS V14.00,2013-07-13 20:42:00,
2013-07-13 15:47:00,94.4,72.3,29.79,ESE,121,11.0,21.0,49,0.00,,,0.00,VWS V14.00,2013-07-13 20:47:00,
2013-07-13 15:52:00,94.3,72.8,29.79,SE,143,5.0,21.0,50,0.00,,,0.00,VWS V14.00,2013-07-13 20:52:00,
2013-07-13 15:57:00,94.4,73.5,29.78,SSE,168,8.0,21.0,51,0.00,,,0.00,VWS V14.00,2013-07-13 20:57:00,
2013-07-13 16:02:00,94.5,73.0,29.78,ESE,119,4.0,21.0,50,0.00,,,0.00,VWS V14.00,2013-07-13 21:02:00,
2013-07-13 16:07:00,94.6,73.1,29.78,SE,138,14.0,19.0,50,0.00,,,0.00,VWS V14.00,2013-07-13 21:07:00,
2013-07-13 16:12:00,94.5,72.4,29.78,SE,125,14.0,19.0,49,0.00,,,0.00,VWS V14.00,2013-07-13 21:12:00,
2013-07-13 16:17:00,94.6,73.1,29.79,SSE,165,8.0,19.0,50,0.00,,,0.00,VWS V14.00,2013-07-13 21:17:00,
2013-07-13 16:22:00,94.5,72.4,29.79,NE,55,5.0,20.0,49,0.00,,,0.00,VWS V14.00,2013-07-13 21:22:00,
2013-07-13 16:27:00,94.3,72.8,29.79,ESE,121,6.0,20.0,50,0.00,,,0.00,VWS V14.00,2013-07-13 21:27:00,
2013-07-13 16:32:00,94.2,72.7,29.79,ESE,115,3.0,20.0,50,0.00,,,0.00,VWS V14.00,2013-07-13 21:32:00,
2013-07-13 16:37:00,94.6,72.5,29.79,SSE,152,10.0,15.0,49,0.00,,,0.00,VWS V14.00,2013-07-13 21:37:00,
2013-07-13 16:42:00,94.6,72.5,29.79,SSE,161,11.0,19.0,49,0.00,,,0.00,VWS V14.00,2013-07-13 21:42:00,
2013-07-13 16:47:00,94.7,72.6,29.79,ESE,102,0.0,19.0,49,0.00,,,0.00,VWS V14.00,2013-07-13 21:47:00,
2013-07-13 16:52:00,94.6,74.3,29.79,East,85,4.0,19.0,52,0.00,,,0.00,VWS V14.00,2013-07-13 21:52:00,
2013-07-13 16:57:00,94.1,74.9,29.79,NNE,33,1.0,20.0,54,0.00,,,0.00,VWS V14.00,2013-07-13 21:57:00,
2013-07-13 17:02:00,93.7,74.6,29.79,South,175,1.0,20.0,54,0.00,,,0.00,VWS V14.00,2013-07-13 22:02:00,
2013-07-13 17:07:00,93.2,74.1,29.79,ESE,114,4.0,14.0,54,0.00,,,0.00,VWS V14.00,2013-07-13 22:07:00,
2013-07-13 17:12:00,93.2,74.1,29.79,SSE,163,10.0,14.0,54,0.00,,,0.00,VWS V14.00,2013-07-13 22:12:00,
2013-07-13 17:17:00,93.3,73.1,29.79,ESE,107,0.0,14.0,52,0.00,,,0.00,VWS V14.00,2013-07-13 22:17:00,
2013-07-13 17:22:00,93.3,73.1,29.79,ESE,121,12.0,20.0,52,0.00,,,0.00,VWS V14.00,2013-07-13 22:22:00,
2013-07-13 17:27:00,93.2,73.0,29.79,ESE,118,4.0,20.0,52,0.00,,,0.00,VWS V14.00,2013-07-13 22:27:00,
2013-07-13 17:32:00,93.1,73.4,29.79,SE,124,10.0,20.0,53,0.00,,,0.00,VWS V14.00,2013-07-13 22:32:00,
2013-07-13 17:37:00,92.8,73.2,29.79,NE,34,1.0,18.0,53,0.00,,,0.00,VWS V14.00,2013-07-13 22:37:00,
2013-07-13 17:42:00,92.5,72.9,29.78,SE,129,2.0,19.0,53,0.00,,,0.00,VWS V14.00,2013-07-13 22:42:00,
2013-07-13 17:47:00,92.1,72.5,29.78,NE,55,2.0,21.0,53,0.00,,,0.00,VWS V14.00,2013-07-13 22:47:00,
2013-07-13 17:52:00,91.9,72.3,29.78,ESE,122,1.0,21.0,53,0.00,,,0.00,VWS V14.00,2013-07-13 22:52:00,
2013-07-13 17:57:00,92.2,73.2,29.78,South,184,7.0,21.0,54,0.00,,,0.00,VWS V14.00,2013-07-13 22:57:00,
2013-07-13 18:02:00,92.2,72.6,29.78,ESE,106,0.0,21.0,53,0.00,,,0.00,VWS V14.00,2013-07-13 23:02:00,
2013-07-13 18:07:00,92.2,72.6,29.78,ESE,113,6.0,13.0,53,0.00,,,0.00,VWS V14.00,2013-07-13 23:07:00,
2013-07-13 18:12:00,92.0,73.0,29.78,ESE,117,2.0,13.0,54,0.00,,,0.00,VWS V14.00,2013-07-13 23:12:00,
2013-07-13 18:17:00,92.0,72.4,29.78,SSE,158,6.0,16.0,53,0.00,,,0.00,VWS V14.00,2013-07-13 23:17:00,
2013-07-13 18:22:00,91.8,72.2,29.78,ESE,109,7.0,17.0,53,0.00,,,0.00,VWS V14.00,2013-07-13 23:22:00,
2013-07-13 18:27:00,91.8,72.2,29.78,SE,144,0.0,17.0,53,0.00,,,0.00,VWS V14.00,2013-07-13 23:27:00,
2013-07-13 18:32:00,91.8,72.2,29.78,South,172,11.0,17.0,53,0.00,,,0.00,VWS V14.00,2013-07-13 23:32:00,
2013-07-13 18:37:00,91.6,72.1,29.78,East,79,0.0,18.0,53,0.00,,,0.00,VWS V14.00,2013-07-13 23:37:00,
2013-07-13 18:42:00,91.1,71.6,29.78,ESE,110,3.0,19.0,53,0.00,,,0.00,VWS V14.00,2013-07-13 23:42:00,
2013-07-13 18:47:00,90.9,72.0,29.77,SE,126,4.0,19.0,54,0.00,,,0.00,VWS V14.00,2013-07-13 23:47:00,
2013-07-13 18:52:00,90.8,72.4,29.78,ESE,104,9.0,19.0,55,0.00,,,0.00,VWS V14.00,2013-07-13 23:52:00,
2013-07-13 18:57:00,90.7,71.8,29.78,ESE,103,12.0,19.0,54,0.00,,,0.00,VWS V14.00,2013-07-13 23:57:00,
2013-07-13 19:02:00,90.5,72.7,29.78,East,94,9.0,19.0,56,0.00,,,0.00,VWS V14.00,2013-07-14 00:02:00,
2013-07-13 19:07:00,90.1,74.3,29.78,ESE,106,7.0,14.0,60,0.00,,,0.00,VWS V14.00,2013-07-14 00:07:00,
2013-07-13 19:12:00,89.2,74.5,29.78,East,94,11.0,18.0,62,0.00,,,0.00,VWS V14.00,2013-07-14 00:12:00,
2013-07-13 19:17:00,88.3,74.1,29.78,East,79,2.0,19.0,63,0.00,,,0.00,VWS V14.00,2013-07-14 00:17:00,
2013-07-13 19:22:00,87.7,74.0,29.78,ENE,61,4.0,19.0,64,0.00,,,0.00,VWS V14.00,2013-07-14 00:22:00,
2013-07-13 19:27:00,87.1,73.9,29.78,East,84,10.0,20.0,65,0.00,,,0.00,VWS V14.00,2013-07-14 00:27:00,
2013-07-13 19:32:00,86.7,74.0,29.78,ESE,114,5.0,20.0,66,0.00,,,0.00,VWS V14.00,2013-07-14 00:32:00,
2013-07-13 19:37:00,86.5,74.2,29.79,East,99,12.0,15.0,67,0.00,,,0.00,VWS V14.00,2013-07-14 00:37:00,
2013-07-13 19:42:00,86.3,74.1,29.79,East,98,3.0,15.0,67,0.00,,,0.00,VWS V14.00,2013-07-14 00:42:00,
2013-07-13 19:47:00,86.0,73.8,29.79,SSE,156,1.0,18.0,67,0.00,,,0.00,VWS V14.00,2013-07-14 00:47:00,
2013-07-13 19:52:00,85.8,74.0,29.79,ESE,115,7.0,18.0,68,0.00,,,0.00,VWS V14.00,2013-07-14 00:52:00,
2013-07-13 19:57:00,85.6,73.4,29.79,East,83,7.0,18.0,67,0.00,,,0.00,VWS V14.00,2013-07-14 00:57:00,
2013-07-13 20:02:00,85.2,73.0,29.79,SSE,156,1.0,18.0,67,0.00,,,0.00,VWS V14.00,2013-07-14 01:02:00,
2013-07-13 20:07:00,85.0,72.8,29.79,ESE,102,0.0,10.0,67,0.00,,,0.00,VWS V14.00,2013-07-14 01:07:00,
2013-07-13 20:12:00,84.9,72.7,29.79,SE,128,10.0,17.0,67,0.00,,,0.00,VWS V14.00,2013-07-14 01:12:00,
2013-07-13 20:17:00,84.6,72.4,29.79,SE,145,3.0,17.0,67,0.00,,,0.00,VWS V14.00,2013-07-14 01:17:00,
2013-07-13 20:22:00,84.4,72.7,29.80,SE,136,0.0,17.0,68,0.00,,,0.00,VWS V14.00,2013-07-14 01:22:00,
2013-07-13 20:27:00,84.1,72.4,29.80,East,96,0.0,17.0,68,0.00,,,0.00,VWS V14.00,2013-07-14 01:27:00,
2013-07-13 20:32:00,84.0,72.3,29.80,East,98,10.0,17.0,68,0.00,,,0.00,VWS V14.00,2013-07-14 01:32:00,
2013-07-13 20:37:00,83.8,72.1,29.80,SE,135,7.0,11.0,68,0.00,,,0.00,VWS V14.00,2013-07-14 01:37:00,
2013-07-13 20:42:00,83.6,71.9,29.80,SE,140,7.0,13.0,68,0.00,,,0.00,VWS V14.00,2013-07-14 01:42:00,
2013-07-13 20:47:00,83.4,72.2,29.80,SE,126,16.0,16.0,69,0.00,,,0.00,VWS V14.00,2013-07-14 01:47:00,
2013-07-13 20:52:00,83.2,72.0,29.80,SE,126,4.0,16.0,69,0.00,,,0.00,VWS V14.00,2013-07-14 01:52:00,
2013-07-13 20:57:00,83.0,72.2,29.80,ESE,113,3.0,16.0,70,0.00,,,0.00,VWS V14.00,2013-07-14 01:57:00,
2013-07-13 21:02:00,82.8,72.0,29.80,ESE,113,10.0,16.0,70,0.00,,,0.00,VWS V14.00,2013-07-14 02:02:00,
2013-07-13 21:07:00,82.7,72.3,29.80,East,92,0.0,10.0,71,0.00,,,0.00,VWS V14.00,2013-07-14 02:07:00,
2013-07-13 21:12:00,82.5,72.2,29.80,East,83,3.0,13.0,71,0.00,,,0.00,VWS V14.00,2013-07-14 02:12:00,
2013-07-13 21:17:00,82.3,72.0,29.80,East,93,12.0,13.0,71,0.00,,,0.00,VWS V14.00,2013-07-14 02:17:00,
2013-07-13 21:22:00,82.2,71.9,29.80,ESE,112,5.0,14.0,71,0.00,,,0.00,VWS V14.00,2013-07-14 02:22:00,
2013-07-13 21:27:00,82.0,72.1,29.80,SE,143,6.0,14.0,72,0.00,,,0.00,VWS V14.00,2013-07-14 02:27:00,
2013-07-13 21:32:00,81.8,71.9,29.81,SSW,202,5.0,14.0,72,0.00,,,0.00,VWS V14.00,2013-07-14 02:32:00,
2013-07-13 21:37:00,81.7,71.8,29.81,East,84,0.0,10.0,72,0.00,,,0.00,VWS V14.00,2013-07-14 02:37:00,
2013-07-13 21:42:00,81.6,72.1,29.81,SE,132,2.0,11.0,73,0.00,,,0.00,VWS V14.00,2013-07-14 02:42:00,
2013-07-13 21:47:00,81.5,72.0,29.81,ESE,114,6.0,13.0,73,0.00,,,0.00,VWS V14.00,2013-07-14 02:47:00,
2013-07-13 21:52:00,81.5,72.0,29.81,ENE,75,8.0,13.0,73,0.00,,,0.00,VWS V14.00,2013-07-14 02:52:00,
2013-07-13 21:57:00,81.4,71.9,29.82,ESE,103,1.0,13.0,73,0.00,,,0.00,VWS V14.00,2013-07-14 02:57:00,
2013-07-13 22:02:00,81.3,71.8,29.81,SE,142,0.0,13.0,73,0.00,,,0.00,VWS V14.00,2013-07-14 03:02:00,
2013-07-13 22:06:00,81.2,71.7,29.82,SSW,206,0.0,9.0,73,0.00,,,0.00,VWS V14.00,2013-07-14 03:06:00,
2013-07-13 22:11:00,81.0,71.9,29.82,East,79,0.0,12.0,74,0.00,,,0.00,VWS V14.00,2013-07-14 03:11:00,
2013-07-13 22:16:00,80.8,71.7,29.82,East,93,0.0,12.0,74,0.00,,,0.00,VWS V14.00,2013-07-14 03:16:00,
2013-07-13 22:21:00,80.7,71.7,29.82,ESE,110,9.0,16.0,74,0.00,,,0.00,VWS V14.00,2013-07-14 03:21:00,
2013-07-13 22:26:00,80.6,71.9,29.82,ESE,114,9.0,16.0,75,0.00,,,0.00,VWS V14.00,2013-07-14 03:26:00,
2013-07-13 22:31:00,80.5,71.8,29.82,East,96,8.0,16.0,75,0.00,,,0.00,VWS V14.00,2013-07-14 03:31:00,
2013-07-13 22:36:00,80.3,72.1,29.82,SE,128,6.0,11.0,76,0.00,,,0.00,VWS V14.00,2013-07-14 03:36:00,
2013-07-13 22:41:00,80.2,71.9,29.82,ESE,103,9.0,16.0,76,0.00,,,0.00,VWS V14.00,2013-07-14 03:41:00,
2013-07-13 22:46:00,80.0,72.2,29.83,East,87,6.0,16.0,77,0.00,,,0.00,VWS V14.00,2013-07-14 03:46:00,
2013-07-13 22:51:00,79.9,72.1,29.83,NE,42,5.0,16.0,77,0.00,,,0.00,VWS V14.00,2013-07-14 03:51:00,
2013-07-13 22:56:00,79.8,72.3,29.82,East,98,10.0,16.0,78,0.00,,,0.00,VWS V14.00,2013-07-14 03:56:00,
2013-07-13 23:01:00,79.7,72.2,29.82,East,98,11.0,18.0,78,0.00,,,0.00,VWS V14.00,2013-07-14 04:01:00,
2013-07-13 23:03:00,79.6,72.1,29.83,SSW,202,4.0,18.0,78,0.00,,,0.00,VWS V14.00,2013-07-14 04:03:00,
2013-07-13 23:08:00,79.6,72.1,29.83,ESE,121,11.0,14.0,78,0.00,,,0.00,VWS V14.00,2013-07-14 04:08:00,
2013-07-13 23:13:00,79.4,71.9,29.83,ENE,64,6.0,14.0,78,0.00,,,0.00,VWS V14.00,2013-07-14 04:13:00,
2013-07-13 23:18:00,79.4,71.9,29.83,SE,134,6.0,18.0,78,0.00,,,0.00,VWS V14.00,2013-07-14 04:18:00,
2013-07-13 23:23:00,79.3,71.5,29.83,ESE,122,10.0,20.0,77,0.00,,,0.00,VWS V14.00,2013-07-14 04:23:00,
2013-07-13 23:28:00,79.2,71.4,29.83,SSE,153,4.0,20.0,77,0.00,,,0.00,VWS V14.00,2013-07-14 04:28:00,
2013-07-13 23:33:00,79.1,71.3,29.83,SSE,150,5.0,20.0,77,0.00,,,0.00,VWS V14.00,2013-07-14 04:33:00,
2013-07-13 23:38:00,79.0,70.8,29.84,East,80,6.0,18.0,76,0.00,,,0.00,VWS V14.00,2013-07-14 04:38:00,
2013-07-13 23:43:00,78.9,70.7,29.84,ENE,78,2.0,18.0,76,0.00,,,0.00,VWS V14.00,2013-07-14 04:43:00,
2013-07-13 23:48:00,78.7,70.1,29.84,ESE,115,4.0,18.0,75,0.00,,,0.00,VWS V14.00,2013-07-14 04:48:00,
2013-07-13 23:53:00,78.7,69.7,29.84,SE,128,5.0,18.0,74,0.00,,,0.00,VWS V14.00,2013-07-14 04:53:00,
2013-07-13 23:58:00,78.6,69.6,29.84,ESE,103,11.0,18.0,74,0.00,,,0.00,VWS V14.00,2013-07-14 04:58:00,